Regional Weather Roundup
Issued by NWS Charleston, SC

Home | Current Version | Previous Version | Text Only | Print | Product List | Glossary On
Versions: 1 2 3 4 5 6 7 8 9 10 11 12 13 14 15 16 17 18 19 20 21 22 23 24 25 26 27 28 29 30 31 32 33 34 35 36 37 38 39 40 41 42 43 44 45 46 47 48 49 50
000
ASUS42 KCHS 260626
RWRCHS

REGIONAL WEATHER ROUNDUP
NATIONAL WEATHER SERVICE CHARLESTON SC
200 AM EDT SUN APR 26 2015

NOTE: "FAIR" INDICATES FEW OR NO CLOUDS BELOW 12,000 FEET WITH NO
SIGNIFICANT WEATHER AND/OR OBSTRUCTIONS TO VISIBILITY.

NOT ALL STATIONS ARE QUALITY CONTROLLED BY THE NATIONAL
WEATHER SERVICE. USE DATA WITH CAUTION...ESPECIALLY
DEWPOINT OBSERVATIONS.

SCZ027-030-031-034>040-042>050-260700-
...SOUTHEAST SOUTH CAROLINA...

CITY           SKY/WX    TMP DP  RH WIND       PRES   REMARKS
N CHARLESTON   CLOUDY    67  63  87 SW8       29.61F
6HR MIN TEMP:  66; 6HR MAX TEMP:  73; 6HR PCP:  0.08;

WATERFRONT PRK NOT AVBL
MOUNT PLEASANT FAIR      68  64  88 MISG      29.60F
PINOPOLIS      NOT AVBL
MONCKS CORNER  CLOUDY    68  63  83 SW9       29.59F
SUMMERVILLE    FAIR      64  64 100 CALM      29.62F
BEAUFORT MCAS  PTCLDY    66  64  93 VRB5      29.65F
6HR MIN TEMP:  66; 6HR MAX TEMP:  74; 6HR PCP:  0.17;

BEAUFORT ARPT  FAIR      66  66 100 CALM      29.64F
HILTON HEAD IS PTCLDY    66  66 100 S9        29.66F
WALTERBORO     PTCLDY    63  63 100 SW8       29.63F
ALLENDALE      FAIR      64  64 100 CALM      29.62S

...SOUTHERN MIDLANDS AND PEE DEE...

CITY           SKY/WX    TMP DP  RH WIND       PRES   REMARKS
GEORGETOWN     NOT AVBL
KINGSTREE      NOT AVBL
ORANGEBURG     CLEAR     67  63  87 SW6       29.61F
6HR MIN TEMP:  67; 6HR MAX TEMP:  72; 6HR PCP:  0.01;

BARNWELL       MOCLDY    66  64  94 SW7       29.62F
AIKEN          MOCLDY    64  63  94 SW8       29.64S
MANNING        FAIR      66  55  68 SW9       29.58F
COLUMBIA       CLEAR     69  64  84 SW12      29.57F
6HR MIN TEMP:  68; 6HR MAX TEMP:  72;

SUMTER         CLEAR     69  66  90 SW12      29.56S
6HR MIN TEMP:  67; 6HR MAX TEMP:  71;

FLORENCE       CLOUDY    66  64  93 CALM      29.57F
6HR MIN TEMP:  65; 6HR MAX TEMP:  69;

MYRTLE BEACH   PTCLDY    72  63  73 SW12      29.59F
N MYRTLE BEACH MOCLDY    70  66  87 W7        29.57F
6HR MIN TEMP:  67; 6HR MAX TEMP:  70;


$$

GAZ063-065-086>088-099>101-113>116-118-119-134>141-150-260700-
...SOUTHEAST GEORGIA...

CITY           SKY/WX    TMP DP  RH WIND       PRES   REMARKS
SAVANNAH ARPT  PTCLDY    66  64  93 SW6       29.67F
6HR MIN TEMP:  64; 6HR MAX TEMP:  79; 6HR PCP:  1.14;

HUNTER AAF     PTCLDY    67  67 100 SW6       29.64F
6HR MIN TEMP:  65; 6HR MAX TEMP:  78; 6HR PCP:  0.62;

FORT STEWART   PTCLDY    67  65  93 SW7       29.65F
6HR MIN TEMP:  66; 6HR MAX TEMP:  78; 6HR PCP:  1.16;

STATESBORO       N/A     65  65 100 W6        29.64F
SYLVANIA       CLEAR     65  65 100 W3        29.65S
CLAXTON          N/A     64  64 100 SW5       29.66F

...CSRA...CENTRAL AND FAR SOUTHEAST GEORGIA...

CITY           SKY/WX    TMP DP  RH WIND       PRES   REMARKS
THOMSON        CLEAR     67  67  99 SW3       29.66S
AUGUSTA-BUSH   CLEAR     65  64  97 SW7       29.61F
6HR MIN TEMP:  65; 6HR MAX TEMP:  74; 6HR PCP:  0.02;

AUGUSTA-DANIEL PTCLDY    68  64  87 SW8       29.61F
SWAINSBORO     NOT AVBL
VIDALIA        CLEAR     64  64 100 SW8       29.66F
EASTMAN        FAIR      66  66 100 CALM      29.69F
HAZLEHURST     FAIR      69  69 100 SW6       29.67F
ALMA           PTCLDY    66  64  93 CALM      29.70F
6HR MIN TEMP:  66; 6HR MAX TEMP:  78; 6HR PCP:  0.69;

WAYCROSS       MOCLDY    70  70 100 CALM      29.69F
JESUP          FAIR      70  68  94 W3        29.69S
BAXLEY         FAIR      68  66  94 SW3       29.68F
BRUNSWICK      MOCLDY    68  64  88 SW5       29.69F
SAINT SIMONS   PTCLDY    69  68  96 S5        29.69F
6HR MIN TEMP:  68; 6HR MAX TEMP:  76; 6HR PCP:  0.05;


$$

SCZ027-028-034-036>038-045-046-048>050-GAZ119-141-260700-
...LAKE AND SUPPLEMENTAL COASTAL OBSERVATIONS...

STATION/POSITION TIME  TEMP    WIND        PRES    WAVE   SWELL
                       AIR SEA DIR/SP/G            HT/PER HT/PER/DIR
                 (UTC) (F)     (DEG/KT/KT) (MB)    (FT/S) (FT/S/D)
UPR LAKE MARION  NOT AVBL
WINYAH BAY       0500   70     230/  9     1002.0
LAKE MURRAY      0500   70     220/ 10/ 12 1001.7F
ACE BASIN NERRS  NOT AVBL
FORT PULASKI     0500   68 70  200/  8/ 12 1005.6R
SAPELO ISLAND    0600   68     190/  5     1005.0F

$$

ANZ835-935-AMZ111-154-330-350-352-354-370-450-454-472-260700-
...C-MAN AND BUOY OBSERVATIONS...

STATION/POSITION TIME  TEMP    WIND        PRES    WAVE   SWELL
                       AIR SEA DIR/SP/G            HT/PER HT/PER/DIR
                 (UTC) (F)     (DEG/KT/KT) (MB)    (FT/S) (FT/S/D)
BUOY 41004       0550   71 71  220/ 17/ 19 1002.6F   4/ 6   2/11
BUOY 41008       0550   69 69  180/  8/ 10 1005.1F   3/ 5   2/160/ 5
FOLLY BEACH CMAN 0600   68     220/ 13/ 15 1002.9F
CAPERS NEARSHORE 0508   69     250/ 16/ 21 1003.9F
FRIPP NEARSHORE  0500   68     220/ 12/ 14 1004.3F


STATION/POSITION TIME  TEMP    WIND        PRES    WAVE   SWELL
                       AIR SEA DIR/SP/G            HT/PER HT/PER/DIR
                 (UTC) (F)     (DEG/KT/KT) (MB)    (FT/S) (FT/S/D)
5E ST. MARYS GA  0521      69                N/A     2/13   2/ 90/13
FRYING PAN BUOY  0550   74 72  240/ 21/ 25 1001.4F   6/ 6   2/320/12
BUOY 41025       0550   65 75  310/ 12/ 16 1000.4R   4/ 7   3/210/ 7
CAPE LOOKOUT NC  0600   63     290/ 11/ 13 1000.7F
BUOY 41002       0550   73 71  230/ 23/ 27 1003.3F   7/ 6   2/180/11
BUOY 41010       0520   80 79  220/ 21/ 25 1008.3F
ST AUGUSTINE FL  0600   74 68  240/  7/  9 1007.6S


$$



USA.gov is the U.S. government's official web portal to all federal, state and local government web resources and services.